Location: ???????
(55.8930°N, 38.0586°E)
Time: 11:01:26
(UTC+00:00)

Cosmos 2219 Rocket - Pass Details

Date: 14 April 2024
Orbit: 827 x 846 km, 71.0° (Epoch: 28 May)

Event Time Altitude Azimuth Distance (km) Brightness Sun altitude
Exits shadow 00:27:52 22° 232° (SW) 1,733 3.2 -14.7°
Maximum altitude 00:31:29 65° 309° (NW) 909 2.3 -14.4°
Drops below altitude 10° 00:37:03 10° 32° (NNE) 2,445 5.9 -13.8°
Sets 00:39:32 0° 35° (NE) 3,383 7.0 -13.5°
